Tracking 31027 objects as of 19-Jul-2025
HD Live streaming from Space Station
objects crossing your sky now

SL-16 DEB

Track SL-16 DEB now!
10-day predictions


NORAD ID: 22294
Int'l Code: 1992-093J
Perigee: 791.8 km
Apogee: 937.8 km
Inclination: 71.1 °
Period: 102.1 minutes
Semi major axis: 7235 km
RCS: 0.5245 m2 (medium)
Launch date: December 25, 1992
Source: Commonwealth of Independent States (former USSR) (CIS)
Launch site: TYURATAM MISSILE AND SPACE COMPLEX (TTMTR)

Note: This is SATELLITE DEBRIS
Your satellite tracking list
ATLAS 5 CENTAUR DEB
Track 1 satellite(s)




NASA's NSSDC Master Catalog

Two Line Element Set (TLE):
1 22294U 92093J   25199.52394003  .00000010  00000-0  30717-4 0  9997
2 22294  71.0584  16.6417 0100862 304.8536 114.7631 14.10506800675968
Source of the keplerian elements: AFSPC